This is the latest recevied weather packets stored in our database for station/object WX7EM. If no packets are shown the sender has not sent any weather packets the latest 1 day(s).
| Time | Temp. | Humidity | Pressure | Rain* | Wind** | Luminosity | Snow |
|---|---|---|---|---|---|---|---|
| 1778040563 | 13.89° C | 88% | 1015.2 hPa | 0 mm | 0 m/s | 0 W/m² | - |
| 1778040261 | 13.89° C | 87% | 1015.3 hPa | 0 mm | 0 m/s | 0 W/m² | - |
| 1778039956 | 14.44° C | 86% | 1015.1 hPa | 0 mm | 0 m/s | 0 W/m² | - |
| 1778039655 | 14.44° C | 86% | 1015.2 hPa | 0 mm | 0 m/s | 0 W/m² | - |
| 1778039351 | 14.44° C | 85% | 1014.9 hPa | 0 mm | 0 m/s | 0 W/m² | - |
| 1778039048 | 15° C | 83% | 1015.1 hPa | 0 mm | 0 m/s | 0 W/m² | - |
| 1778038745 | 15.56° C | 82% | 1014.9 hPa | 0 mm | 0 m/s | 0 W/m² | - |
| 1778038442 | 15.56° C | 81% | 1014.9 hPa | 0 mm | 0 m/s | 1 W/m² | - |
| 1778038139 | 15.56° C | 80% | 1014.7 hPa | 0 mm | 0 m/s | 1 W/m² | - |
| 1778037836 | 16.11° C | 79% | 1014.7 hPa | 0 mm | 0 m/s | 3 W/m² | - |
| 1778037533 | 16.11° C | 78% | 1014.7 hPa | 0 mm | 0 m/s | 4 W/m² | - |
| 1778037230 | 16.67° C | 77% | 1014.5 hPa | 0 mm | 0 m/s | 7 W/m² | - |
| 1778036928 | 16.67° C | 77% | 1014.5 hPa | 0 mm | 0 m/s | 9 W/m² | - |
| 1778036626 | 16.67° C | 76% | 1014.8 hPa | 0 mm | 0.45 m/s, 108° | 12 W/m² | - |
| 1778036322 | 17.22° C | 74% | 1014.6 hPa | 0 mm | 0 m/s | 16 W/m² | - |
| 1778036018 | 17.22° C | 73% | 1014.5 hPa | 0 mm | 0.89 m/s, 120° | 21 W/m² | - |
| 1778035716 | 17.78° C | 72% | 1014.6 hPa | 0 mm | 0.45 m/s, 69° | 26 W/m² | - |
| 1778035412 | 17.78° C | 71% | 1014.5 hPa | 0 mm | 0 m/s | 31 W/m² | - |
| 1778035109 | 18.33° C | 70% | 1014.7 hPa | 0 mm | 0.45 m/s, 18° | 37 W/m² | - |
| 1778034805 | 18.33° C | 70% | 1014.7 hPa | 0 mm | 0 m/s | 44 W/m² | - |
| 1778034502 | 18.33° C | 69% | 1014.5 hPa | 0 mm | 0 m/s | 51 W/m² | - |
| 1778034200 | 18.33° C | 69% | 1014.5 hPa | 0 mm | 0.45 m/s, 68° | 56 W/m² | - |
| 1778033898 | 18.33° C | 70% | 1014.3 hPa | 0 mm | 0.45 m/s, 103° | 65 W/m² | - |
| 1778033594 | 18.89° C | 69% | 1014.4 hPa | 0 mm | 0 m/s | 69 W/m² | - |
| 1778033291 | 18.33° C | 70% | 1014.3 hPa | 0 mm | 0.45 m/s, 104° | 63 W/m² | - |
* Rain latest hour (hover to see other rain measurements)
** Current wind speed in m/s (hover to see current wind gust speed)